Hourly Data Report for October 24, 2016

All times are specified in Local Standard Time (LST). Add 1 hour to adjust for Daylight Saving Time where and when it is observed.

POND INLET A
NUNAVUT

72°41'22.000" N
77°58'08.000" W
61.60 m
2403206
71095
YIO

Download Data

Hourly Data (October 2016)
Hourly Data Report for October 24, 2016
Temp Definition
°C
Dew Point Temp Definition
°C
Rel Hum Definition
%
Wind Dir Definition
10's deg

Wind Spd Definition
km/h
Visibility Definition
km
Stn Press Definition
kPa
Hmdx Definition


Wind Chill Definition


Weather Definition


TIME
00:00 Legend Double Dagger -14.9 -16.2 90 14 15 16.1 102.47   -23 Snow
01:00 Legend Double Dagger -14.7 -16.1 89 13 13 16.1 102.46   -22 Snow
02:00 Legend Double Dagger -13.6 -14.8 91 15 15 16.1 102.42   -21 LegendNANA
03:00 Legend Double Dagger -13.7 -14.9 91 14 13 16.1 102.40   -21 Snow
04:00 Legend Double Dagger -13.4 -14.6 91 15 13 16.1 102.37   -20 Snow
05:00 Legend Double Dagger -13.7 -14.9 91 15 11 16.1 102.34   -20 Snow
06:00 Legend Double Dagger -13.8 -15.0 91 16 9 16.1 102.29   -19 LegendNANA
07:00 Legend Double Dagger -13.7 -15.0 90 14 9 16.1 102.24   -19 LegendNANA
08:00 Legend Double Dagger -13.6 -14.9 90 16 8 16.1 102.19   -19 LegendNANA
09:00 Legend Double Dagger -14.7 -16.0 90 14 13 16.1 102.13   -22 LegendNANA
10:00 Legend Double Dagger -15.3 -16.7 89 14 17 16.1 102.08   -24 Snow
11:00 Legend Double Dagger -15.3 -16.7 89 14 15 16.1 102.04   -23 LegendNANA
12:00 Legend Double Dagger -15.0 -16.3 90 15 17 16.1 101.98   -23 LegendNANA
13:00 Legend Double Dagger -14.7 -16.0 90 15 17 16.1 101.94   -23 LegendNANA
14:00 Legend Double Dagger -15.2 -16.6 89 15 18 16.1 101.89   -24 LegendNANA
15:00 Legend Double Dagger -14.6 -15.9 90 15 18 16.1 101.87   -23 LegendNANA
16:00 Legend Double Dagger -15.4 -16.6 91 14 15 16.1 101.86   -23 LegendNANA
17:00 Legend Double Dagger -13.6 -14.8 91 17 11 16.1 101.79   -20 Snow
18:00 Legend Double Dagger -13.3 -14.5 91 14 9 16.1 101.76   -19 LegendNANA
19:00 Legend Double Dagger -13.2 -14.4 91 15 13 16.1 101.72   -20 Snow
20:00 Legend Double Dagger -12.9 -14.1 91 15 13 16.1 101.66   -20 LegendNANA
21:00 Legend Double Dagger -12.6 -13.8 91 18 11 16.1 101.61   -19 LegendNANA
22:00 Legend Double Dagger -12.3 -13.3 92 17 13 16.1 101.55   -19 Snow
23:00 Legend Double Dagger -11.9 -13.0 92 17 15 16.1 101.52   -19 Snow

Notes on Data Quality.

Legend

  • E = Estimated
  • M = Missing
  • NA = Not Available
  • ‡ = Partner data that is not subject to review by the National Climate Archives
Date modified: